[[{"header":{"parameterUnit":"m.s-1","parameterCategory":1,"la1":30.2991,"la2":30.254,"lo1":-89.0895,"lo2":-89.0444,"dy":0.0017,"dx":0.0017,"nx":28,"ny":28,"refTime":"2024-05-26T03:00:00:Z","depth":0,"parameterNumber":2,"parameterNumberName":"U-component_of_WINDS"},"data":[0,0,0,0,0,0,0,0,0,0,0,0,0,0,0,0,0,0,0,0,0,0,0,0,0,0,0,0,0,0,0,0,0,0,0,0,0,0,0,0,0,0,0,0,0,0,0,0,0,0,0,0,0,0,0,0,0,0,2.1853,2.1855,0,2.1953,2.1954,2.1955,2.1971,2.197,2.1969,2.1968,2.2071,2.2074,2.2078,0,0,0,0,0,0,0,0,0,0,0,0,0,2.1676,2.168,2.1853,2.1855,2.1856,2.1953,2.1954,2.1956,2.1971,2.197,2.1968,2.1967,2.207,2.2074,2.2078,0,0,0,0,0,0,0,0,0,0,0,0,0,2.1762,2.1681,2.1853,2.1875,2.1878,2.1953,2.1954,2.1956,2.1971,2.197,2.1968,2.1967,2.2068,2.2074,2.2079,2.2139,0,0,2.2095,2.2098,0,0,0,0,0,0,0,0,2.1758,2.1769,2.1871,2.1874,2.1877,2.1948,2.193,2.2017,2.1971,2.1936,2.1968,2.1966,2.2031,2.2039,2.2061,2.2144,2.2148,2.2096,2.2099,2.2101,2.2103,0,0,0,0,0,0,0,2.1752,2.1765,2.1893,2.1872,2.1876,2.188,2.1891,2.1946,2.199,2.1939,2.194,2.1952,2.2033,2.2056,2.2064,2.215,2.2096,2.21,2.2104,2.2106,2.2287,2.2289,0,0,0,0,0,0,2.1742,2.176,2.189,2.1896,2.1813,2.1884,2.1896,2.1927,2.1989,2.1997,2.1953,2.1952,2.2047,2.2057,2.2067,2.2142,2.2101,2.2106,2.2109,2.2285,2.2287,2.2289,0,0,0,0,0,0,2.1738,2.1753,2.1886,2.1828,2.1845,2.1889,2.1923,2.1929,2.1953,2.2,2.2008,2.1968,2.2047,2.206,2.2121,2.2146,2.2109,2.2114,2.2284,2.2286,2.2288,2.2292,0,0,0,0,0,0,2.1733,2.1752,2.1775,2.1829,2.1848,2.1937,2.1924,2.1932,2.1962,2.1962,2.2017,2.2024,2.2047,2.2113,2.2126,2.2153,2.2118,2.2282,2.2285,2.2287,2.229,2.2294,2.2298,0,0,0,0,0,2.1726,2.1772,2.1776,2.1791,2.1878,2.1939,2.195,2.1975,2.1964,2.1987,2.2018,2.2023,2.2141,2.2119,2.2134,2.2162,2.228,2.2284,2.2287,2.2288,2.2293,2.2297,0,0,0,0,0,0,2.172,2.1779,2.1784,2.1849,2.1889,2.1941,2.1972,2.1979,2.2023,2.2022,2.205,2.2063,2.2122,2.2149,2.2123,2.2224,2.221,2.2216,2.2205,2.221,2.2214,2.2207,2.2122,0,0,0,0,0,2.1726,2.177,2.182,2.1872,2.1891,2.1928,2.1955,2.1971,2.2013,2.203,2.2065,2.2107,2.2153,2.2183,2.2229,2.2293,2.2306,2.232,2.2324,2.2327,2.2333,2.2369,2.2376,2.2301,2.2301,2.2301,0,0,2.1739,2.1777,2.1803,2.1871,2.1904,2.1949,2.1942,2.199,2.2024,2.2038,2.2098,2.2125,2.2173,2.2236,2.2266,2.226,2.2357,2.2332,2.2334,2.2338,2.2374,2.2381,2.2387,2.2303,2.2303,2.2302,0,0,2.1785,2.1818,2.1865,2.1898,2.1948,2.1972,2.1983,2.2035,2.2054,2.2114,2.2125,2.2166,2.2246,2.228,2.2307,2.2367,2.2373,2.2381,2.2402,2.2437,2.2443,2.2448,2.247,2.2477,2.2386,2.2386,2.2386,0,2.1795,2.1863,2.1889,2.1936,2.1966,2.1981,2.2029,2.2059,2.2121,2.2142,2.2134,2.2234,2.2268,2.2339,2.2353,2.2375,2.2389,2.2375,2.244,2.2446,2.2451,2.2472,2.248,2.2387,2.2387,2.2387,2.2387,0,2.1873,2.192,2.1952,2.2012,2.2045,2.2093,2.2125,2.2156,2.2169,2.2194,2.2256,2.2296,2.235,2.2368,2.2381,2.2442,2.2436,2.2434,2.242,2.2458,2.2478,2.2486,2.2388,2.2387,2.2387,2.2387,0,0,2.1918,2.1991,2.2002,2.2029,2.2085,2.2123,2.2171,2.2224,2.2249,2.2292,2.2333,2.24,2.2398,2.243,2.2447,2.2477,2.2522,2.2471,2.2473,2.2479,2.2591,2.2592,2.2601,2.2527,2.2528,2.2529,2.2587,0,2.1971,2.2058,2.2082,2.2155,2.2199,2.2214,2.2256,2.2295,2.232,2.2361,2.2388,2.2435,2.2429,2.2448,2.248,2.251,2.2545,2.2506,2.2565,2.2567,2.2553,2.2612,2.2613,2.2666,2.2595,2.2596,2.2597,0,2.2044,2.2088,2.2166,2.2216,2.2236,2.2273,2.2323,2.2362,2.2407,2.2423,2.2458,2.2472,2.2523,2.2507,2.2578,2.2551,2.2576,2.2595,2.2598,2.2604,2.2584,2.2619,2.2683,2.2691,2.261,2.2609,2.2608,0,2.2069,2.2147,2.2204,2.2227,2.2287,2.2313,2.234,2.2383,2.2413,2.2457,2.2477,2.2526,2.2553,2.2591,2.2619,2.2604,2.2687,2.2673,2.2702,2.2701,2.2719,2.2717,2.2787,2.2736,2.2735,2.2735,2.2735,0,2.2126,2.2172,2.2216,2.2251,2.2304,2.2331,2.2383,2.241,2.2449,2.2489,2.2505,2.2542,2.2576,2.2618,2.264,2.2695,2.2707,2.2722,2.2727,2.272,2.2718,2.2737,2.2734,2.2737,2.2737,2.2737,2.2736,0,2.2162,2.2193,2.2256,2.2308,2.2322,2.2359,2.2404,2.2438,2.2464,2.2515,2.2528,2.2568,2.2619,2.2649,2.2714,2.2728,2.2789,2.2793,2.2774,2.2776,2.2804,2.2801,2.2888,2.2901,2.2841,2.2841,2.2842,0,2.2196,2.2232,2.2289,2.2317,2.2343,2.2389,2.2419,2.2448,2.248,2.2534,2.2561,2.2613,2.2656,2.2736,2.277,2.2819,2.2825,2.2852,2.2832,2.2824,2.2825,2.2822,2.2826,2.2855,2.2856,2.2856,2.2856,0,2.2253,2.2266,2.231,2.236,2.2396,2.2436,2.2476,2.2499,2.2534,2.2569,2.2621,2.2654,2.2719,2.277,2.2822,2.285,2.2859,2.2862,2.2872,2.2865,2.2852,2.2859,2.2783,2.286,2.286,2.2859,2.2859,2.2859,2.2289,2.2322,2.2367,2.2415,2.2448,2.2486,2.2521,2.2551,2.2594,2.265,2.2664,2.2718,2.2762,2.2833,2.2862,2.2905,2.2901,2.2914,2.2918,2.2921,2.2921,2.2846,2.2914,2.2914,2.2914,2.2914,2.2914,0,2.2346,2.2376,2.242,2.2476,2.2514,2.252,2.2565,2.2596,2.2644,2.2684,2.2726,2.2785,2.2835,2.2874,2.2924,2.2951,2.2957,2.2964,2.2962,2.2968,2.2922,2.2909,2.2958,2.2958,2.2958,2.2958,2.2958,2.2958,2.238,2.2437,2.2456,2.2529,2.2558,2.2612,2.2637,2.2671,2.2704,2.2769,2.2811,2.2836,2.2876,2.2929,2.2975,2.2985,2.3003,2.3009,2.302,2.2976,2.2971,2.2967,2.2954,2.3013,2.3013,2.3063,2.3063,2.3064]},{"header":{"parameterUnit":"m.s-1","parameterCategory":1,"la1":30.2991,"la2":30.254,"lo1":-89.0895,"lo2":-89.0444,"dy":0.0017,"dx":0.0017,"nx":28,"ny":28,"refTime":"2024-05-26T03:00:00:Z","depth":0,"parameterNumber":3,"parameterNumberName":"V-component_of_WINDS"},"data":[0,0,0,0,0,0,0,0,0,0,0,0,0,0,0,0,0,0,0,0,0,0,0,0,0,0,0,0,0,0,0,0,0,0,0,0,0,0,0,0,0,0,0,0,0,0,0,0,0,0,0,0,0,0,0,0,0,0,5.4233,5.4234,0,5.4325,5.4326,5.4327,5.431,5.4309,5.4307,5.4306,5.4393,5.4397,5.44,0,0,0,0,0,0,0,0,0,0,0,0,0,5.4036,5.404,5.4233,5.4234,5.4235,5.4325,5.4326,5.4327,5.4311,5.4309,5.4307,5.4305,5.4392,5.4396,5.4401,0,0,0,0,0,0,0,0,0,0,0,0,0,5.4124,5.4041,5.4233,5.4238,5.4239,5.4324,5.4326,5.4327,5.4311,5.4309,5.4306,5.4304,5.439,5.4396,5.4401,5.4485,0,0,5.4419,5.4421,0,0,0,0,0,0,0,0,5.4119,5.4131,5.4236,5.4238,5.424,5.4304,5.4288,5.438,5.4312,5.4284,5.4306,5.4303,5.4365,5.4372,5.4395,5.4489,5.4493,5.4419,5.4423,5.4425,5.4427,0,0,0,0,0,0,0,5.4113,5.4127,5.4269,5.4238,5.424,5.4233,5.4243,5.4306,5.4336,5.4286,5.4285,5.4296,5.4365,5.4389,5.4397,5.4494,5.4419,5.4424,5.4428,5.443,5.466,5.4662,0,0,0,0,0,0,5.4106,5.4122,5.4266,5.4272,5.4172,5.4239,5.425,5.4286,5.4336,5.4341,5.4298,5.4295,5.4381,5.439,5.44,5.4501,5.4425,5.4431,5.4434,5.4657,5.466,5.4663,0,0,0,0,0,0,5.4102,5.4119,5.4262,5.4197,5.4215,5.4245,5.4285,5.4289,5.4313,5.4345,5.435,5.4318,5.4379,5.4392,5.4464,5.4503,5.4433,5.4438,5.4654,5.4658,5.4662,5.4703,0,0,0,0,0,0,5.4096,5.4118,5.4152,5.4198,5.4218,5.4328,5.4287,5.4292,5.4324,5.432,5.4365,5.437,5.4378,5.4456,5.447,5.451,5.4443,5.4651,5.4656,5.4661,5.4698,5.4708,5.4716,0,0,0,0,0,5.4089,5.4158,5.4153,5.4171,5.4262,5.433,5.4341,5.4352,5.4327,5.436,5.438,5.4368,5.4497,5.4463,5.4479,5.4521,5.4648,5.4654,5.466,5.4694,5.4706,5.4716,0,0,0,0,0,0,5.4114,5.4164,5.416,5.4246,5.4284,5.4327,5.437,5.4364,5.4408,5.4403,5.4412,5.4422,5.4496,5.4515,5.4477,5.4604,5.4569,5.4578,5.4589,5.4601,5.4609,5.4603,5.4448,0,0,0,0,0,5.4129,5.4183,5.4224,5.4296,5.4315,5.4339,5.4369,5.4374,5.4413,5.4428,5.4454,5.4491,5.4539,5.4571,5.4617,5.4701,5.4709,5.4737,5.4746,5.4754,5.4762,5.4807,5.482,5.4683,5.4683,5.4683,0,0,5.4162,5.4196,5.4229,5.4301,5.4332,5.4385,5.4353,5.4411,5.445,5.4436,5.4507,5.4527,5.4568,5.4647,5.4682,5.4665,5.4801,5.4761,5.4767,5.4771,5.4814,5.4827,5.4839,5.4687,5.4686,5.4686,0,0,5.4249,5.428,5.4344,5.4375,5.4422,5.4437,5.4452,5.4497,5.451,5.4582,5.4573,5.4618,5.4701,5.4731,5.4756,5.4853,5.4843,5.4868,5.4915,5.4959,5.4969,5.4979,5.5014,5.5026,5.4876,5.4876,5.4876,0,5.4282,5.4365,5.4377,5.4436,5.4468,5.446,5.4523,5.4552,5.461,5.4631,5.4611,5.4716,5.4742,5.4828,5.4851,5.4872,5.4889,5.4863,5.4967,5.4977,5.4986,5.5019,5.5032,5.4878,5.4878,5.4878,5.4878,0,5.4404,5.4462,5.4507,5.4567,5.4602,5.4663,5.4682,5.4716,5.4717,5.4734,5.4806,5.4838,5.489,5.491,5.4911,5.4996,5.4984,5.4966,5.493,5.5002,5.5033,5.5046,5.4882,5.4881,5.4881,5.488,0,0,5.451,5.4575,5.4592,5.4619,5.4669,5.4712,5.4771,5.4825,5.4854,5.4894,5.4943,5.5014,5.4997,5.5027,5.503,5.5069,5.5143,5.5046,5.5047,5.5063,5.5237,5.5251,5.5266,5.5136,5.5139,5.5141,5.5234,0,5.4602,5.471,5.4722,5.4817,5.487,5.4862,5.4914,5.4949,5.4965,5.501,5.5027,5.5077,5.5052,5.5069,5.5107,5.5126,5.5178,5.5119,5.5181,5.5183,5.5172,5.5282,5.5297,5.5384,5.5246,5.5248,5.525,0,5.4724,5.477,5.4872,5.4915,5.4937,5.4984,5.5034,5.5077,5.5115,5.5125,5.5157,5.5156,5.5214,5.5176,5.5256,5.5216,5.5241,5.5254,5.5258,5.5264,5.5221,5.5292,5.5412,5.5425,5.5269,5.5267,5.5266,0,5.4792,5.4878,5.4951,5.4973,5.5026,5.5058,5.5081,5.5118,5.5149,5.5191,5.5211,5.5258,5.5285,5.532,5.5331,5.5302,5.541,5.5373,5.5418,5.5418,5.5442,5.5441,5.5568,5.5457,5.5457,5.5457,5.5457,0,5.4894,5.4956,5.4982,5.5026,5.5095,5.5106,5.5173,5.5194,5.5226,5.5273,5.5268,5.5311,5.5322,5.5366,5.5374,5.5439,5.545,5.5458,5.546,5.5459,5.5458,5.5477,5.5471,5.546,5.546,5.5459,5.5458,0,5.4981,5.5001,5.5079,5.5123,5.5135,5.5184,5.5219,5.526,5.5276,5.5335,5.5349,5.5372,5.5424,5.5438,5.5499,5.5505,5.5581,5.5577,5.5569,5.557,5.5615,5.561,5.5759,5.5779,5.5654,5.5655,5.5656,0,5.5045,5.5094,5.5143,5.5175,5.5199,5.5251,5.5283,5.5295,5.5328,5.5376,5.5411,5.5463,5.5505,5.5588,5.5609,5.5655,5.5652,5.5701,5.5659,5.5657,5.5653,5.5651,5.5656,5.5709,5.571,5.5711,5.5712,0,5.5158,5.5165,5.5214,5.5266,5.5305,5.5345,5.5384,5.541,5.5426,5.5464,5.5518,5.5551,5.5615,5.5666,5.5713,5.5733,5.5725,5.5725,5.5738,5.5739,5.5733,5.5737,5.5592,5.5722,5.5721,5.572,5.572,5.5719,5.5236,5.5278,5.532,5.5374,5.5404,5.5441,5.5482,5.5503,5.555,5.5604,5.5607,5.5666,5.5701,5.5764,5.5787,5.5832,5.5817,5.5836,5.5841,5.5845,5.585,5.5725,5.584,5.584,5.5839,5.5839,5.5839,0,5.5348,5.5375,5.5424,5.548,5.5521,5.5512,5.5554,5.5589,5.5642,5.5677,5.5719,5.5781,5.583,5.5855,5.5903,5.5934,5.5931,5.5946,5.5944,5.5949,5.586,5.5844,5.5947,5.5947,5.5947,5.5947,5.5947,5.5947,5.5412,5.5484,5.5496,5.5582,5.5606,5.5666,5.5691,5.5724,5.5752,5.5822,5.5864,5.5881,5.5911,5.5961,5.6005,5.6011,5.6029,5.6046,5.605,5.5966,5.5955,5.5945,5.593,5.605,5.605,5.6135,5.6136,5.6137]}]]